Previsão horária em Centralnyy

Hoje, 1 Agosto, Domingo

Tempo Temperatura Precipitação Vento Pressão Humidade
00:00 +19°C° 0 mm 5 m/s 743 mmHg 93%
01:00 +19°C° 0 mm 4 m/s 743 mmHg 94%
02:00 +19°C° 0 mm 3 m/s 742 mmHg 94%
03:00 +18°C° 0 mm 3 m/s 742 mmHg 95%
04:00 +18°C° 0 mm 2 m/s 742 mmHg 96%
05:00 +17°C° 0 mm 2 m/s 742 mmHg 96%
06:00 +19°C° 0 mm 2 m/s 743 mmHg 92%
07:00 +20°C° 0 mm 2 m/s 743 mmHg 87%
08:00 +21°C° 0 mm 2 m/s 743 mmHg 81%
09:00 +24°C° 0 mm 2 m/s 743 mmHg 73%
10:00 +26°C° 0 mm 2 m/s 743 mmHg 64%
11:00 +27°C° 0 mm 2 m/s 744 mmHg 55%
12:00 +28°C° 0 mm 1 m/s 743 mmHg 52%
13:00 +29°C° 0 mm 1 m/s 743 mmHg 48%
14:00 +29°C° 0 mm 1 m/s 743 mmHg 46%
15:00 +29°C° 0.1 mm 2 m/s 743 mmHg 51%
16:00 +28°C° 0.1 mm 2 m/s 743 mmHg 56%
17:00 +27°C° 0.1 mm 2 m/s 742 mmHg 61%
18:00 +26°C° 0 mm 2 m/s 742 mmHg 64%
19:00 +25°C° 0 mm 2 m/s 742 mmHg 68%
20:00 +24°C° 0 mm 2 m/s 742 mmHg 71%
21:00 +23°C° 0.2 mm 2 m/s 741 mmHg 76%
22:00 +21°C° 0.2 mm 2 m/s 741 mmHg 80%
23:00 +20°C° 0.2 mm 2 m/s 741 mmHg 84%

Amanhã, 2 Agosto, Segunda-feira

Tempo Temperatura Precipitação Vento Pressão Humidade
00:00 +20°C° 0.2 mm 3 m/s 741 mmHg 86%
01:00 +20°C° 0.2 mm 3 m/s 740 mmHg 88%
02:00 +19°C° 0.2 mm 3 m/s 740 mmHg 90%
03:00 +19°C° 0.2 mm 3 m/s 739 mmHg 90%
04:00 +19°C° 0.2 mm 4 m/s 739 mmHg 90%
05:00 +19°C° 0.2 mm 4 m/s 738 mmHg 90%
06:00 +20°C° 0.2 mm 5 m/s 738 mmHg 87%
07:00 +21°C° 0.2 mm 6 m/s 738 mmHg 84%
08:00 +22°C° 0.2 mm 7 m/s 737 mmHg 81%
09:00 +23°C° 0 mm 7 m/s 738 mmHg 74%
10:00 +24°C° 0 mm 7 m/s 738 mmHg 68%
11:00 +24°C° 0 mm 7 m/s 739 mmHg 61%
12:00 +23°C° 0.2 mm 7 m/s 739 mmHg 65%
13:00 +23°C° 0.2 mm 7 m/s 739 mmHg 70%
14:00 +22°C° 0.2 mm 7 m/s 740 mmHg 74%
15:00 +21°C° 0.1 mm 7 m/s 740 mmHg 73%
16:00 +20°C° 0.1 mm 6 m/s 741 mmHg 72%
17:00 +20°C° 0.1 mm 6 m/s 741 mmHg 71%
18:00 +19°C° 0 mm 5 m/s 741 mmHg 75%
19:00 +18°C° 0 mm 4 m/s 742 mmHg 79%
20:00 +17°C° 0 mm 4 m/s 742 mmHg 82%
21:00 +17°C° 0 mm 3 m/s 743 mmHg 86%
22:00 +16°C° 0 mm 3 m/s 743 mmHg 90%
23:00 +14°C° 0 mm 3 m/s 743 mmHg 94%

Depois de amanhã, 3 Agosto, Terça-feira

Tempo Temperatura Precipitação Vento Pressão Humidade
00:00 +14°C° 0 mm 3 m/s 743 mmHg 95%
01:00 +14°C° 0 mm 3 m/s 743 mmHg 96%
02:00 +13°C° 0 mm 3 m/s 744 mmHg 97%
03:00 +13°C° 0 mm 3 m/s 744 mmHg 96%
04:00 +12°C° 0 mm 3 m/s 744 mmHg 96%
05:00 +13°C° 0 mm 2 m/s 744 mmHg 96%
06:00 +14°C° 0 mm 3 m/s 745 mmHg 85%
07:00 +17°C° 0 mm 4 m/s 745 mmHg 75%
08:00 +18°C° 0 mm 4 m/s 745 mmHg 65%
09:00 +20°C° 0 mm 5 m/s 745 mmHg 57%
10:00 +21°C° 0 mm 5 m/s 746 mmHg 49%
11:00 +23°C° 0 mm 6 m/s 746 mmHg 42%
12:00 +22°C° 0 mm 6 m/s 746 mmHg 42%
13:00 +22°C° 0 mm 5 m/s 746 mmHg 43%
14:00 +22°C° 0 mm 5 m/s 746 mmHg 44%
15:00 +22°C° 0 mm 5 m/s 746 mmHg 45%
16:00 +22°C° 0 mm 5 m/s 746 mmHg 46%
17:00 +22°C° 0 mm 5 m/s 746 mmHg 47%
18:00 +21°C° 0 mm 4 m/s 746 mmHg 51%
19:00 +20°C° 0 mm 3 m/s 746 mmHg 54%
20:00 +19°C° 0 mm 2 m/s 747 mmHg 58%
21:00 +18°C° 0 mm 2 m/s 747 mmHg 63%
22:00 +17°C° 0 mm 2 m/s 747 mmHg 68%
23:00 +16°C° 0 mm 2 m/s 747 mmHg 73%

4 Agosto, Quarta-feira

Tempo Temperatura Precipitação Vento Pressão Humidade
00:00 +15°C° 0 mm 2 m/s 747 mmHg 78%
01:00 +14°C° 0 mm 2 m/s 747 mmHg 82%
02:00 +14°C° 0 mm 1 m/s 748 mmHg 87%
03:00 +13°C° 0 mm 1 m/s 748 mmHg 87%
04:00 +13°C° 0 mm 1 m/s 748 mmHg 87%
05:00 +13°C° 0 mm 1 m/s 748 mmHg 88%
06:00 +15°C° 0 mm 1 m/s 748 mmHg 80%
07:00 +18°C° 0 mm 1 m/s 748 mmHg 72%
08:00 +20°C° 0 mm 1 m/s 749 mmHg 63%
09:00 +22°C° 0 mm 1 m/s 748 mmHg 57%
10:00 +23°C° 0 mm 2 m/s 748 mmHg 51%
11:00 +25°C° 0 mm 2 m/s 748 mmHg 44%
12:00 +25°C° 0 mm 2 m/s 748 mmHg 43%
13:00 +26°C° 0 mm 2 m/s 748 mmHg 41%
14:00 +26°C° 0 mm 1 m/s 748 mmHg 40%
15:00 +26°C° 0 mm 1 m/s 748 mmHg 42%
16:00 +26°C° 0 mm 1 m/s 747 mmHg 44%
17:00 +26°C° 0 mm 1 m/s 747 mmHg 46%
18:00 +24°C° 0.1 mm 2 m/s 747 mmHg 53%
19:00 +21°C° 0.1 mm 2 m/s 747 mmHg 59%
20:00 +19°C° 0.1 mm 2 m/s 747 mmHg 66%
21:00 +19°C° 0.1 mm 2 m/s 747 mmHg 70%
22:00 +18°C° 0.1 mm 2 m/s 747 mmHg 74%
23:00 +18°C° 0.1 mm 2 m/s 747 mmHg 78%

5 Agosto, Quinta-feira

Tempo Temperatura Precipitação Vento Pressão Humidade
00:00 +17°C° 0.7 mm 2 m/s 747 mmHg 82%
01:00 +17°C° 0.7 mm 3 m/s 747 mmHg 87%
02:00 +16°C° 0.7 mm 3 m/s 746 mmHg 92%
03:00 +16°C° 0.1 mm 3 m/s 746 mmHg 93%
04:00 +16°C° 0.1 mm 3 m/s 746 mmHg 94%
05:00 +14°C° 0.1 mm 3 m/s 746 mmHg 96%
06:00 +17°C° 0.1 mm 3 m/s 746 mmHg 94%
07:00 +18°C° 0.1 mm 3 m/s 746 mmHg 92%
08:00 +19°C° 0.1 mm 3 m/s 746 mmHg 90%
09:00 +19°C° 0 mm 3 m/s 745 mmHg 87%
10:00 +20°C° 0 mm 3 m/s 745 mmHg 84%
11:00 +21°C° 0 mm 3 m/s 745 mmHg 81%
12:00 +22°C° 0 mm 3 m/s 745 mmHg 77%
13:00 +22°C° 0 mm 3 m/s 745 mmHg 73%
14:00 +24°C° 0 mm 3 m/s 745 mmHg 68%
15:00 +24°C° 0.1 mm 3 m/s 744 mmHg 70%
16:00 +24°C° 0.1 mm 3 m/s 744 mmHg 71%
17:00 +24°C° 0.1 mm 3 m/s 744 mmHg 73%
18:00 +21°C° 0.5 mm 3 m/s 744 mmHg 80%
19:00 +19°C° 0.5 mm 3 m/s 744 mmHg 88%
20:00 +18°C° 0.5 mm 4 m/s 744 mmHg 96%
21:00 +17°C° 0.1 mm 4 m/s 743 mmHg 96%
22:00 +17°C° 0.1 mm 4 m/s 743 mmHg 97%
23:00 +16°C° 0.1 mm 3 m/s 743 mmHg 98%

6 Agosto, Sexta-feira

Tempo Temperatura Precipitação Vento Pressão Humidade
00:00 +16°C° 0 mm 3 m/s 743 mmHg 98%
01:00 +16°C° 0 mm 3 m/s 742 mmHg 98%
02:00 +16°C° 0 mm 3 m/s 742 mmHg 98%
03:00 +16°C° 0.2 mm 3 m/s 741 mmHg 98%
04:00 +15°C° 0.2 mm 4 m/s 741 mmHg 98%
05:00 +17°C° 0.2 mm 4 m/s 741 mmHg 98%
06:00 +17°C° 0.4 mm 4 m/s 740 mmHg 97%
07:00 +18°C° 0.4 mm 4 m/s 740 mmHg 96%
08:00 +19°C° 0.4 mm 5 m/s 740 mmHg 94%
09:00 +21°C° 0.1 mm 6 m/s 739 mmHg 87%
10:00 +22°C° 0.1 mm 6 m/s 739 mmHg 80%
11:00 +24°C° 0.1 mm 7 m/s 739 mmHg 73%
12:00 +26°C° 0.1 mm 8 m/s 739 mmHg 67%
13:00 +27°C° 0.1 mm 8 m/s 738 mmHg 61%
14:00 +28°C° 0.1 mm 9 m/s 738 mmHg 55%
15:00 +26°C° 0.1 mm 9 m/s 738 mmHg 58%
16:00 +24°C° 0.1 mm 9 m/s 739 mmHg 62%
17:00 +23°C° 0.1 mm 9 m/s 739 mmHg 65%
18:00 +21°C° 0 mm 8 m/s 739 mmHg 71%
19:00 +20°C° 0 mm 8 m/s 739 mmHg 76%
20:00 +18°C° 0 mm 8 m/s 739 mmHg 82%
21:00 +17°C° 0 mm 7 m/s 740 mmHg 84%
22:00 +17°C° 0 mm 7 m/s 740 mmHg 85%
23:00 +17°C° 0 mm 6 m/s 741 mmHg 87%
Mostrar mais

Necessitamos do seu Consentimento

A Meteoprog e os seus Fornecedores de Serviços podem armazenar e aceder a dados pessoais como cookies, identificadores do dispositivo ou outras tecnologias semelhantes existentes no seu dispositivo e processar estes dados para personalizar conteúdos e anúncios, assim como funcionalidades nas redes sociais e análise de tráfego.

  • Armazenar e/ou aceder a informações no seu dispositivo

    Os cookies, identificadores do dispositivo ou outras informações podem ser armazenados ou acedidos no seu dispositivo, para os fins acima indicados.

  • Anúncios e conteúdos personalizados, medição de anúncios e conteúdos, dados sobre o público-alvo e desenvolvimento de produtos

    Os anúncios e os conteúdos podem ser personalizados com base num perfil. Podem ser adicionados dados adicionais para uma maior personalização dos anúncios e dos conteúdos. A eficácia dos anúncios e dos conteúdos pode ser medida. Podem ser obtidas informações sobre o público que visualizou os anúncios e os conteúdos. Estes dados podem ser usados para desenvolver ou melhorar sistemas, softwares ou a experiência do utilizador.

Ao clicar em "Eu concordo”, permitirá o uso de cookies, identificadores do dispositivo e web beacons mencionados ou outras tecnologias semelhantes. As configurações do navegador do seu dispositivo podem ser alteradas.

Para certos fins, podem ser invocados interesses legítimos ao invés de consentimento. Pode ler mais informação sobre este assunto na nossa Política de Privacidade e Cookies.